Volver al catálogo

STARLINK-32703

ActivoComunicacionesVLEO
NORAD 62996·PAYLOAD·🇺🇸 United States

Lanzado Feb 11, 2025 desde Cape Canaveral Space Force Station

Loading…

Próximos Pases (próximas 24 horas)

TLE

ActualizadoSource: CelesTrak SupGP

Época: Sep 15, 2026, 02:46 UTC

1 62996C 25031R   26258.11576389  .00033901  00000+0  12278-2 0  2581
2 62996  42.9997 153.8785 0001414 276.5982  17.1257 15.27564265    17

Sigue STARLINK-32703 en tiempo real con AllMySat

Download on the App Store